Regional Weather Roundup
Issued by NWS Wakefield, VA

Home | Current Version | Previous Version | Text Only | Print | Product List | Glossary On
Versions: 1 2 3 4 5 6 7 8 9 10 11 12 13 14 15 16 17 18 19 20 21 22 23 24 25 26 27 28 29 30 31 32 33 34 35 36 37 38 39 40 41 42 43 44 45 46 47 48 49 50
480
ASUS41 KAKQ 240515
RWRAKQ

REGIONAL WEATHER ROUNDUP
NATIONAL WEATHER SERVICE WAKEFIELD VA
100 AM EDT MON JUL 24 2017

Note: "fair" indicates few or no clouds below 12,000 feet with no
significant weather and/or obstructions to visibility. * = Denotes
station may not report precipitation (e.g., rain,snow,etc.),
thunder or fog.

VAZ042-051-052>054-056-240600-
NORTHERN VIRGINIA

CITY           SKY/WX    TMP DP  RH WIND       PRES   REMARKS
WASH NATIONAL  CLOUDY    76  73  91 NE10      29.76F
DULLES         CLOUDY    73  71  93 N3        29.75F
FORT BELVOIR   MOCLDY    75  73  94 CALM      29.74F
QUANTICO       LGT RAIN  82  74  76 SW14G22   29.76F
FREDERICKSBRG* PTCLDY    80  72  77 MISG      29.77R
STAFFORD*      CLOUDY    79  73  82 S8G17     29.80S
WARRENTON      CLOUDY    78  74  86 E3        29.75F
CULPEPER*      CLOUDY    77  75  93 CALM      29.76S
MANASSAS*      PTCLDY    75  72  90 E5        29.75F
LEESBURG*      CLOUDY    73  73 100 CALM      29.76F
WINCHESTER     CLOUDY    72  70  94 CALM      29.77F
FRONT ROYAL*   CLOUDY    73  72  94 CALM      29.77F
LURAY*         CLOUDY    75  70  83 CALM      29.79F
$$

VAZ048-049-060>072-079>083-240600-
CENTRAL AND SOUTH CENTRAL VIRGINIA

CITY           SKY/WX    TMP DP  RH WIND       PRES   REMARKS
RICHMOND       CLOUDY    75  74  96 E3        29.82F
CHESTERFIELD*  FAIR      75  75 100 NW7       29.84S
PETERSBURG*    CLOUDY    75  68  79 CALM      29.83F
HANOVER        CLOUDY    75  71  87 SW7       29.84R
TAPPAHANNOCK*  DRIZZLE   76  73  90 SE9       29.81F
QUINTON*       CLOUDY    74  74 100 S8        29.81F
CHARLOTTSVILLE PTCLDY    81  70  69 S15       29.79S
GORDONSVILLE*  CLOUDY    78  72  81 S9        29.78S
ORANGE*        PTCLDY    77  70  78 S6        29.78S
LOUISA*        CLOUDY    75  68  78 S9G16     29.80F
BUMPASS*       FAIR      73  72  97 SW10G16   29.81S
FARMVILLE*     RAIN      74  71  90 SW8       29.82F
CREWE*         FAIR      78  63  58 CALM      29.84R
FORT PICKETT*  FAIR     N/A N/A N/A W8        29.85R
CHASE CITY*    FAIR      76  67  74 W3        29.85R
CLARKSVILLE*   FAIR      72  68  88 CALM      29.84S
SOUTH HILL*    MOCLDY    74  69  83 S5        29.90R
LAWRENCEVILLE* FAIR      75  70  85 S3        29.84S
EMPORIA*         N/A     72  68  88 S3        29.86R
$$

VAZ088>098-240600-
SOUTHEAST VIRGINIA

CITY           SKY/WX    TMP DP  RH WIND       PRES   REMARKS
NORFOLK        CLOUDY    75  70  84 W8        29.76F
VIRGINIA BEACH LGT RAIN  73  68  84 S8        29.76F
NORFOLK NAVAL  CLOUDY    76  69  79 W10       29.78F
WEST POINT*    CLOUDY    77  71  83 SW6       29.83F
SALUDA*        FAIR      79  70  74 SW6       29.80S
NEWPORT NEWS   NOT AVBL
LANGLEY AFB    CLOUDY    76  70  81 W9        29.77F
FORT EUSTIS    MOCLDY    77  70  78 W3        29.78F
WILLIAMSBURG*  CLOUDY    79  70  73 CALM      29.82F
HR EXEC AP*    FAIR      72  66  83 W5        29.76F
FRANKLIN*      CLOUDY    72  70  94 CALM      29.81F
US460-WAKEFLD  PTCLDY    73  70  90 SW5       29.83F
$$

VAZ020-022-025-037-045-240600-
WEST CENTRAL AND SOUTHWEST VIRGINIA

CITY           SKY/WX    TMP DP  RH WIND       PRES   REMARKS
STAUNTON*      MOCLDY    74  64  71 SW5       29.84F
WAYNESBORO*    CLOUDY    78  64  62 SW6       29.84F
HOT SPRINGS VA CLOUDY    64  61  88 SW15G22   30.01F
LYNCHBURG      RAIN      70  69  97 SW3       29.88F FOG
DANVILLE       PTCLDY    74  69  85 W10       29.84F
SOUTH BOSTON*  FAIR      76  66  72 NW6       29.84S
MARTINSVILLE   LGT RAIN  73  67  81 W7        29.91S
ROANOKE        TSTM      71  70  96 VRB7      29.93R FOG
BLACKSBURG     TSTM      69  67  93 W10G18    30.00R
DUBLIN*        LGT RAIN  70  65  84 W6        29.98S
MARION*        LGT RAIN  68  64  88 SW5       30.03R
HILLSVILLE*    LGT RAIN  68  64  87 SW13      29.99S
RICHLANDS*     CLOUDY    67  64  91 CALM      29.99F
WISE*          CLOUDY    68  68 100 SW9       30.00F
ABINGDON*      CLOUDY    70  70 100 CALM      29.97F
$$

MDZ021>025-VAZ099-100-240600-
SOUTHERN MARYLAND AND THE DELMARVA PENINSULA

CITY           SKY/WX    TMP DP  RH WIND       PRES   REMARKS
PATUXENT RIVER CLOUDY    80  74  81 SW16G26   29.75F
BAY BRIDGE APT LGT RAIN  79  75  89 SE5       29.74F
LEONARDTOWN    CLOUDY    79  72  78 SW13G18   29.77F
DOVER          PTCLDY    77  77 100 E3        29.73F
GEORGETOWN     CLOUDY    77  73  87 CALM      29.76F
EASTON         MOCLDY    78  74  88 S6        29.78F
CAMBRIDGE      PTCLDY    77  75  94 CALM      29.74F
SALISBURY      NOT AVBL
OCEAN CITY     MOCLDY    76  74  93 SW9       29.77F
WALLOPS ISLAND CLOUDY    79  71  76 W14G29    29.76F
ACCOMACK*      CLOUDY    78  72  80 W14G23    29.77F
$$

NCZ012>017-030>032-240600-
NORTH CENTRAL AND EASTERN NORTH CAROLINA

CITY           SKY/WX    TMP DP  RH WIND       PRES   REMARKS
ROANOKE RAPIDS FAIR      72  70  94 S8        29.85F
RALEIGH        MOCLDY    73  71  93 SW6       29.89R
ELIZABETH CITY CLOUDY    75  74  96 S9        29.80F
AHOSKIE*         N/A     69  69  99 CALM      29.84R
EDENTON*       CLOUDY    76  72  87 S8        29.84S
CURRITUCK*     CLOUDY   N/A N/A N/A SW5       29.82F
KILL DEVIL HLS CLOUDY    75  70  83 CALM      29.82F
MANTEO         CLOUDY    74  70  87 SW9       29.85F
CAPE HATTERAS  PTCLDY    76  71  85 SW8       29.88F
TARBORO*       NOT AVBL
GOLDSBORO      CLOUDY    77  75  95 S7        29.87S
WASHINGTON     CLOUDY    74  72  92 S8        29.84F
GREENVILLE     CLOUDY    72  72 100 S9        29.86F
NEW BERN       MOCLDY    77  71  82 S3        29.89F
WILMINGTON     CLOUDY    80  76  87 SW10      29.90S
$$

VAZ048-240600-
ELSEWHERE

CITY           SKY/WX    TMP DP  RH WIND       PRES   REMARKS
HARRISBURG PA  HVY RAIN  72  71  97 CALM      29.76F
BALTIMORE      TSTM      73  73 100 S12G24    29.75F FOG
ANNAPOLIS      HVY RAIN  76  76 100 NW30G40   29.72F VSB 3/4
ANDREWS AFB    CLOUDY    73  72  94 N3        29.74F
PHILADELPHIA   CLOUDY    72  69  90 E9        29.78F
HENDERSON NC   CLEAR     70  64  82 SW9       29.86S
GREENSBORO     MOCLDY    72  70  93 W15       29.87F
ROCKY MOUNT    CLOUDY    74  72  93 S7        29.88F
$$

VAZ100-240600-
MARINE

STATION/POSITION TIME  TEMP    WIND        PRES    WAVE   SWELL
                       AIR SEA DIR/SP/G            HT/PER HT/PER
                 (UTC) (F)     (DEG/KT/KT) (MB)    (FT/S) (FT/S)
BRANDYWINE LGT   0448   75     150/  7/  9 1008.4F
CAPE MAY NJ      0448   75 74   CALM  /  2 1007.6F
LEWES DE         0448   75 75  160/  1/  1 1007.6F
15NM E FENWICK I 0450   78 74  190/ 10/ 12 1008.2F   3/ 6   2/ 6
OCEAN-CITY-INLET 0448   74 68  210/  9/ 11 1008.3F
WACHAPREAGUE VA  0448   78 83  220/ 10/ 14 1007.8F
THOMAS POINT MD  0500   81 82  140/ 15/ 18   N/A
COVE POINT MD    0448   81     230/ 19/ 24 1007.8F
SOLOMONS ISLAND  0448   82 85  220/ 18/ 23   N/A
BISHOPS HEAD MD  0448   84 84  220/ 23/ 27 1007.2F
PINEY POINT MD   0448          240/ 12/ 18   N/A
CAMBRIDGE MD     0448   78 87              1007.9F
LEWISETTA VA     0448   80 86  250/ 16/ 21 1007.8F
RAPPAHANNOCK LGT 0448          230/ 21/ 27 1008.8F
YORK RVR RNG VA  0448   79     240/ 14/ 17 1008.7F
YORKTOWN VA      0448   77 83  240/  9/ 12 1008.4F
DOMINION TERM VA 0448   77     240/ 13/ 14 1008.2F
KIPTOPEKE VA     0448      73  270/ 19/ 24   N/A
CHES BAY BRIDGE  0448   76     280/ 18/ 19 1007.5F
CAPE HENRY VA    0448   74     250/ 11/ 14   N/A
WILLOUBY STN VA  0448   76     260/ 15/ 17 1007.9F
S CRANEY ISL VA  0448   74     240/  5/  8 1008.0F
CAPE HENRY BUOY  0430      63                N/A     3/11
64NM E OF VA BCH 0450   78 79  230/ 19/ 23 1009.0F   5/ 4   2/ 9
DUCK PIER NC     0448   77 60  220/ 16/ 22 1009.0F
44100 DUCK FRF   0405      72                N/A     3/ 6
44056 DUCK FRF   0500      64                N/A     2/10
OREGON INLET NC  0442   78 84  240/ 10/ 12 1010.7F
HATTERAS NC      0448   75 78  210/  7/  9 1011.9F
DIAMOND SHLS NC  0450   80 84  250/ 10/ 12 1012.4S   8/ 7   7/ 7
CAPE LOOKOUT NC  0400   81     240/ 11/ 13 1013.1F
$$




USA.gov is the U.S. government's official web portal to all federal, state and local government web resources and services.